Mount Pleasant, IA

1:57 AM CDT on May 25, 2017 (GMT -0500)
Mount Pleasant Municipal

Weather History for KMPZ - March, 2013

Change the Weather History Date:

Tuesday, March 12, 2013

  Actual Average Record
Temperature  
Mean Temperature 34 °F -  
Max Temperature 41 °F 46 °F 78 °F (1990)
Min Temperature 28 °F 29 °F 7 °F (1969)
Degree Days  
Heating Degree Days 30    
Moisture  
Dew Point 22 °F    
Average Humidity 64    
Maximum Humidity 76    
Minimum Humidity 51    
Precipitation  
Precipitation 0.00 in - - ()
Sea Level Pressure  
Sea Level Pressure 30.04 in    
Wind  
Wind Speed 11 mph (West)    
Max Wind Speed 24 mph    
Max Gust Speed 34 mph    
Visibility 9 miles    
Events Snow    
Averages and records for this station are not official NWS values.
T = Trace of Precipitation, MM = Missing Value Source: NWS Daily Summary

Daily Weather History Graph

Daily Weather History Graph

Search for Another Location

Airport or City:

Trip Planner

Search our weather history database for the weather conditions in past years. The results will help you decide how hot, cold, wet, or windy it might be!

Date:

Astronomy

Mar. 12, 2013 Rise Set
Actual Time 7:22 AM CDT 7:09 PM CDT
Civil Twilight 6:54 AM CDT 7:37 PM CDT
Nautical Twilight 6:23 AM CDT 8:09 PM CDT
Astronomical Twilight 5:50 AM CDT 8:41 PM CDT
Moon 7:28 AM CDT (3/12) 8:26 PM CDT (3/12)
Length of Visible Light 12h 42m
Length of Day
11h 47m
New Moon, 1% of the Moon is Illuminated
Mar 12
New Moon
Mar 19
First Quarter
Mar 27
Full
Apr 2
Last Quarter
Apr 10
New

Hourly Weather History & Observations

Time (CDT) Temp. Windchill Dew Point Humidity Pressure Visibility Wind Dir Wind Speed Gust Speed Precip Events Conditions
12:15 AM 32.0 °F 25.6 °F 20.7 °F 63% 29.94 in 10.0 mi West 6.9 mph - N/A   Clear
12:35 AM 31.6 °F 25.1 °F 20.7 °F 64% 29.94 in 10.0 mi WNW 6.9 mph - N/A   Clear
12:55 AM 31.3 °F 24.7 °F 21.4 °F 67% 29.95 in 10.0 mi WSW 6.9 mph - N/A   Clear
1:15 AM 31.1 °F 23.7 °F 21.9 °F 69% 29.96 in 10.0 mi West 8.1 mph - N/A   Clear
1:35 AM 30.9 °F 23.5 °F 22.3 °F 70% 29.97 in 10.0 mi WSW 8.1 mph - N/A   Clear
1:55 AM 30.6 °F 23.1 °F 22.1 °F 71% 29.97 in 10.0 mi West 8.1 mph - N/A   Clear
2:15 AM 30.2 °F 24.3 °F 21.9 °F 71% 29.97 in 10.0 mi WSW 5.8 mph - N/A   Clear
2:35 AM 30.0 °F 23.2 °F 22.5 °F 73% 29.97 in 10.0 mi WSW 6.9 mph - N/A   Clear
2:55 AM 30.0 °F 24.1 °F 22.1 °F 72% 29.98 in 10.0 mi WSW 5.8 mph - N/A   Clear
3:15 AM 29.7 °F 24.7 °F 22.1 °F 73% 29.97 in 10.0 mi WSW 4.6 mph - N/A   Clear
3:35 AM 29.3 °F 23.2 °F 21.9 °F 74% 29.96 in 10.0 mi WSW 5.8 mph - N/A   Clear
3:55 AM 29.1 °F 24.1 °F 21.7 °F 74% 29.96 in 10.0 mi WSW 4.6 mph - N/A   Clear
4:15 AM 28.8 °F 22.6 °F 22.1 °F 76% 29.96 in 10.0 mi WSW 5.8 mph - N/A   Clear
4:35 AM 28.9 °F 21.9 °F 22.1 °F 76% 29.96 in 10.0 mi SW 6.9 mph - N/A   Clear
4:55 AM 28.9 °F 22.8 °F 21.9 °F 75% 29.97 in 10.0 mi WSW 5.8 mph - N/A   Clear
5:15 AM 29.1 °F 21.3 °F 22.1 °F 75% 29.98 in 10.0 mi WSW 8.1 mph - N/A   Clear
5:35 AM 29.1 °F 22.1 °F 21.7 °F 74% 29.98 in 10.0 mi West 6.9 mph - N/A   Clear
5:55 AM 29.7 °F 22.0 °F 21.6 °F 72% 29.98 in 10.0 mi West 8.1 mph - N/A   Clear
6:15 AM 29.7 °F 22.0 °F 21.2 °F 71% 29.98 in 10.0 mi West 8.1 mph - N/A   Clear
6:35 AM 30.0 °F 22.4 °F 21.2 °F 70% 29.99 in 10.0 mi West 8.1 mph - N/A   Clear
6:55 AM 30.0 °F 23.2 °F 20.8 °F 69% 29.98 in 10.0 mi West 6.9 mph - N/A   Clear
7:15 AM 29.8 °F 23.0 °F 20.8 °F 69% 29.98 in 10.0 mi WSW 6.9 mph - N/A   Clear
7:35 AM 29.3 °F 22.3 °F 21.2 °F 72% 29.98 in 10.0 mi WSW 6.9 mph - N/A   Clear
7:55 AM 30.0 °F 22.4 °F 21.9 °F 72% 29.99 in 10.0 mi WSW 8.1 mph - N/A   Clear
8:35 AM 32.0 °F 24.2 °F 22.6 °F 68% 30.00 in 10.0 mi WSW 9.2 mph - N/A   Clear
8:55 AM 32.5 °F 24.2 °F 22.3 °F 66% 30.02 in 10.0 mi West 10.4 mph - N/A   Clear
9:15 AM 33.8 °F 25.8 °F 22.8 °F 64% 30.02 in 10.0 mi West 10.4 mph 16.1 mph N/A   Clear
9:35 AM 34.7 °F 26.4 °F 23.0 °F 62% 30.03 in 10.0 mi WSW 11.5 mph - N/A   Clear
9:55 AM 35.6 °F 27.1 °F 23.2 °F 61% 30.03 in 10.0 mi West 12.7 mph - N/A   Clear
10:15 AM 36.7 °F 29.4 °F 24.3 °F 61% 30.02 in 10.0 mi WSW 10.4 mph - N/A   Mostly Cloudy
10:35 AM 36.9 °F 29.6 °F 25.2 °F 63% 30.02 in 10.0 mi SW 10.4 mph 17.3 mph N/A   Overcast
10:55 AM 38.7 °F 32.4 °F 25.5 °F 59% 30.02 in 10.0 mi WSW 9.2 mph - N/A   Overcast
11:15 AM 37.4 °F 28.2 °F 25.2 °F 61% 30.03 in 7.0 mi SW 16.1 mph - N/A   Overcast
11:35 AM 35.6 °F 29.2 °F 28.2 °F 75% 30.03 in 2.0 mi WSW 8.1 mph - N/A Snow Light Snow
11:55 AM 37.4 °F 28.9 °F 27.7 °F 68% 30.03 in 7.0 mi WSW 13.8 mph - N/A   Overcast
12:15 PM 36.9 °F 26.8 °F 27.7 °F 69% 30.04 in 2.0 mi WSW 18.4 mph 24.2 mph N/A Snow Light Snow
12:35 PM 36.9 °F 26.8 °F 28.2 °F 71% 30.04 in 2.5 mi WSW 18.4 mph 25.3 mph N/A Snow Light Snow
12:55 PM 37.4 °F 28.5 °F 28.4 °F 70% 30.04 in 5.0 mi West 15.0 mph - N/A Snow Light Snow
1:15 PM 37.8 °F 28.3 °F 28.4 °F 69% 30.04 in 3.0 mi West 17.3 mph 25.3 mph N/A Snow Light Snow
1:35 PM 38.1 °F 29.1 °F 28.0 °F 67% 30.05 in 10.0 mi West 16.1 mph 20.7 mph N/A Snow Light Snow
1:55 PM 38.5 °F 29.2 °F 26.6 °F 62% 30.04 in 10.0 mi West 17.3 mph 25.3 mph N/A   Overcast
2:15 PM 39.4 °F 31.1 °F 25.5 °F 58% 30.04 in 10.0 mi West 15.0 mph 19.6 mph N/A   Overcast
2:35 PM 41.2 °F 31.6 °F 25.0 °F 53% 30.03 in 10.0 mi West 21.9 mph 27.6 mph N/A   Overcast
2:55 PM 39.6 °F 29.5 °F 22.8 °F 51% 30.04 in 10.0 mi West 21.9 mph 28.8 mph N/A   Overcast
3:15 PM 40.1 °F 31.3 °F 23.7 °F 52% 30.04 in 10.0 mi West 17.3 mph 27.6 mph N/A   Overcast
3:35 PM 38.5 °F 27.8 °F 24.1 °F 56% 30.04 in 7.0 mi West 23.0 mph 32.2 mph N/A   Unknown
3:55 PM 38.7 °F 29.8 °F 25.2 °F 58% 30.05 in 7.0 mi West 16.1 mph 26.5 mph N/A   Unknown
4:15 PM 39.6 °F 29.7 °F 25.0 °F 56% 30.05 in 10.0 mi West 20.7 mph 25.3 mph N/A   Overcast
4:35 PM 38.3 °F 28.7 °F 25.3 °F 60% 30.06 in 7.0 mi WNW 18.4 mph 26.5 mph N/A   Unknown
4:55 PM 38.5 °F 29.6 °F 26.2 °F 61% 30.06 in 10.0 mi West 16.1 mph 23.0 mph N/A   Overcast
5:15 PM 39.2 °F 29.0 °F 23.9 °F 54% 30.06 in 10.0 mi West 21.9 mph 29.9 mph N/A   Overcast
5:35 PM 38.3 °F 27.6 °F 23.4 °F 55% 30.07 in 10.0 mi West 23.0 mph 32.2 mph N/A   Overcast
5:55 PM 36.1 °F 27.3 °F 26.2 °F 67% 30.08 in 3.0 mi NW 13.8 mph 34.5 mph N/A Snow Light Snow
6:15 PM 33.8 °F 23.9 °F 26.6 °F 75% 30.09 in 1.5 mi WNW 15.0 mph 21.9 mph N/A Snow Light Snow
6:35 PM 34.2 °F 23.0 °F 23.2 °F 64% 30.10 in 10.0 mi WNW 19.6 mph 27.6 mph N/A   Overcast
6:55 PM 33.8 °F 22.8 °F 19.2 °F 55% 30.11 in 10.0 mi WNW 18.4 mph 32.2 mph N/A   Mostly Cloudy
7:15 PM 33.3 °F 22.8 °F 18.7 °F 55% 30.12 in 10.0 mi WNW 16.1 mph 24.2 mph N/A   Mostly Cloudy
7:35 PM 32.9 °F 22.4 °F 18.3 °F 55% 30.13 in 10.0 mi WNW 16.1 mph 27.6 mph N/A   Overcast
7:55 PM 32.4 °F 23.5 °F 19.0 °F 58% 30.14 in 10.0 mi NW 11.5 mph 17.3 mph N/A   Mostly Cloudy
8:15 PM 32.0 °F 20.5 °F 16.2 °F 52% 30.14 in 10.0 mi WNW 18.4 mph 24.2 mph N/A   Mostly Cloudy
8:35 PM 32.0 °F 21.2 °F 17.8 °F 56% 30.15 in 10.0 mi WNW 16.1 mph 24.2 mph N/A   Overcast
8:55 PM 32.0 °F 18.9 °F 19.8 °F 61% 30.15 in 7.0 mi WNW 24.2 mph 28.8 mph N/A Snow Light Snow
9:15 PM 31.8 °F 20.2 °F 17.6 °F 56% 30.16 in 10.0 mi WNW 18.4 mph 27.6 mph N/A   Mostly Cloudy
9:35 PM 31.8 °F 20.6 °F 18.0 °F 57% 30.17 in 10.0 mi WNW 17.3 mph 23.0 mph N/A   Overcast
9:55 PM 31.6 °F 18.7 °F 16.9 °F 54% 30.17 in 10.0 mi WNW 23.0 mph 32.2 mph N/A   Mostly Cloudy
10:15 PM 31.6 °F 19.0 °F 16.3 °F 53% 30.18 in 10.0 mi WNW 21.9 mph 27.6 mph N/A   Mostly Cloudy
10:35 PM 31.5 °F 20.9 °F 17.2 °F 56% 30.18 in 10.0 mi WNW 15.0 mph 23.0 mph N/A   Overcast
10:55 PM 31.3 °F 21.1 °F 17.1 °F 56% 30.18 in 10.0 mi WNW 13.8 mph 21.9 mph N/A   Mostly Cloudy
11:15 PM 31.5 °F 19.1 °F 16.7 °F 54% 30.18 in 10.0 mi WNW 20.7 mph 33.4 mph N/A   Overcast
11:35 PM 31.5 °F 20.5 °F 17.6 °F 57% 30.19 in 10.0 mi WNW 16.1 mph 24.2 mph N/A Snow Light Snow
11:55 PM 31.5 °F 20.1 °F 15.8 °F 52% 30.19 in 10.0 mi WNW 17.3 mph 28.8 mph N/A   Overcast